Home   Weather   Cedar Rapids   Past weeks

Flag for USA Past Weather in Cedar Rapids, Iowa, USA — Yesterday and Last 2 Weeks

Now
16 °F

Mostly cloudy.


Feels Like: 16 °F
Forecast: 15 / 24 °F
Wind: No wind

Location: Cedar Rapids Municipal Airport

Current Time: Dec 10, 2016 at 4:51:09 am

Latest Report: Dec 10, 2016 at 3:52 am


Visibility: 10 mi

Pressure: 30.55 "Hg

Humidity: 92%

Dew Point: 14 °F

Location of Cedar RapidsLocation

Past Weather in Cedar Rapids — Graph

°F

Cedar Rapids Temperature Yesterday

Maximum temperature yesterday: 19 °F (at 2:52 pm)
Minimum temperature yesterday: 10 °F (at 6:52 am)
Average temperature yesterday: 16 °F

High & Low Weather Summary for the Past Weeks

 TemperatureHumidityPressure
High53 °F (Nov 26, 1:52 pm)100% (Nov 25, 2:52 am)30.65 "Hg (Nov 25, 2:52 am)
Low10 °F (Dec 9, 6:52 am)52% (Nov 26, 1:52 pm)29.07 "Hg (Nov 28, 5:52 pm)
Average32 °F89%30.01 "Hg
* Reported Nov 25 2:52 am — Dec 10 2:52 am, Cedar Rapids, Weather by CustomWeather, © 2016

Note: Actual official high and low records may vary slightly from our data, if they occured in-between our weather recording intervals... More about our weather records

Advertising

Cedar Rapids Weather History for the Previous 24 Hours

Scroll right to see more
 ConditionsComfort  
Time TempWeatherWind HumidityBarometerVisibility
2:52 am
Sat, Dec 10
17 °FOvercast.5 mph92%30.55 "Hg10 mi
1:52 am19 °FOvercast.5 mph88%30.55 "Hg10 mi
12:52 am19 °FOvercast.3 mph88%30.55 "Hg10 mi
11:52 pm
Fri, Dec 9
18 °FOvercast.No wind92%30.55 "Hg10 mi
10:52 pm17 °FOvercast.5 mph92%30.56 "Hg10 mi
9:52 pm17 °FMostly cloudy.3 mph88%30.56 "Hg10 mi
8:52 pm17 °FPassing clouds.No wind88%30.57 "Hg10 mi
7:52 pm17 °FOvercast.No wind92%30.57 "Hg9 mi
6:52 pm16 °FOvercast.No wind92%30.58 "Hg10 mi
5:52 pm16 °FClear.No wind87%30.58 "Hg10 mi
4:52 pm15 °FClear.6 mph87%30.59 "Hg10 mi
3:52 pm18 °FSunny.6 mph80%30.59 "Hg10 mi
2:52 pm19 °FPassing clouds.7 mph77%30.58 "Hg10 mi
1:52 pm18 °FPassing clouds.8 mph80%30.58 "Hg10 mi
12:52 pm18 °FSunny.6 mph80%30.59 "Hg10 mi
11:52 am17 °FSunny.7 mph83%30.61 "Hg10 mi
10:52 am17 °FSunny.12 mph80%30.64 "Hg10 mi
9:52 am16 °FSunny.10 mph84%30.65 "Hg10 mi
8:52 am14 °FSunny.9 mph87%30.63 "Hg10 mi
7:52 am10 °FSunny.7 mph96%30.61 "Hg10 mi
6:52 am10 °FClear.10 mph96%30.62 "Hg10 mi
5:52 am13 °FPassing clouds.10 mph92%30.61 "Hg10 mi
4:52 am13 °FPassing clouds.9 mph92%30.60 "Hg10 mi
Weather by CustomWeather, © 2016

See weather overviewHow to use our weather pages